GW3580 Weather Reports


Display with metric or nautical units.
time (UTC)temp
F
wind
direction
speed
MPH
gust
MPH
rain 1hr
in
rain 24hr
in
rain mn
in
humidity
%
barometer
mb
20260906113649 61 288 1.0 1.0 0.00 0.00 0.00 65 1012.2
20260906113144 61 35 0.0 0.0 0.00 0.00 0.00 64 1012.1
20260906112643 61 273 0.0 0.0 0.00 0.00 0.00 64 1012.3
20260906112141 61 8 0.0 0.0 0.00 0.00 0.00 64 1012.2
20260906111640 61 108 0.0 0.0 0.00 0.00 0.00 64 1012.1
20260906111134 62 31 0.0 0.0 0.00 0.00 0.00 64 1012.1
20260906110629 62 292 1.0 1.0 0.00 0.00 0.00 64 1012.2
20260906110124 62 243 0.0 1.0 0.00 0.00 0.00 63 1012.3
20260906105618 62 48 0.0 0.0 0.00 0.00 0.00 63 1012.0
20260906105115 62 257 0.0 0.0 0.00 0.00 0.00 63 1012.1
20260906104614 62 199 1.0 1.0 0.00 0.00 0.00 63 1012.0
20260906104108 62 250 1.0 1.0 0.00 0.00 0.00 62 1012.1
20260906103606 63 264 0.0 0.0 0.00 0.00 0.00 62 1011.9
20260906103102 63 274 1.0 1.0 0.00 0.00 0.00 62 1012.0
20260906102602 63 250 1.0 1.0 0.00 0.00 0.00 62 1012.2
20260906102056 63 300 1.0 1.0 0.00 0.00 0.00 62 1012.1
20260906101551 63 82 0.0 1.0 0.00 0.00 0.00 61 1012.2
20260906101045 63 334 0.0 1.0 0.00 0.00 0.00 61 1012.2
20260906100541 63 245 1.0 2.0 0.00 0.00 0.00 60 1012.2
20260906100036 63 261 1.0 1.0 0.00 0.00 0.00 60 1012.1
20260906095530 63 269 3.0 4.0 0.00 0.00 0.00 60 1012.3
20260906095026 63 291 0.0 1.0 0.00 0.00 0.00 60 1012.2
20260906094525 63 257 3.0 4.0 0.00 0.00 0.00 61 1012.3
20260906094021 63 255 2.0 2.0 0.00 0.00 0.00 60 1012.2
20260906093517 64 257 2.0 4.0 0.00 0.00 0.00 61 1012.2
20260906093016 64 359 0.0 1.0 0.00 0.00 0.00 61 1012.1
20260906092511 64 269 2.0 2.0 0.00 0.00 0.00 60 1012.3
20260906092007 64 258 3.0 4.0 0.00 0.00 0.00 60 1011.9
20260906091502 64 289 2.0 4.0 0.00 0.00 0.00 59 1012.1
20260906090959 64 261 3.0 4.0 0.00 0.00 0.00 59 1012.2
20260906090453 64 273 3.0 4.0 0.00 0.00 0.00 60 1012.4
20260906085953 64 256 2.0 2.0 0.00 0.00 0.00 59 1012.1
20260906085452 64 291 3.0 4.0 0.00 0.00 0.00 59 1012.4
20260906084951 65 277 2.0 2.0 0.00 0.00 0.00 59 1012.5
20260906084447 65 242 3.0 4.0 0.00 0.00 0.00 58 1012.4
20260906083945 65 285 3.0 5.0 0.00 0.00 0.00 58 1012.4
20260906083442 65 266 2.0 2.0 0.00 0.00 0.00 58 1012.5
20260906082940 65 269 2.0 2.0 0.00 0.00 0.00 58 1012.2
20260906082436 65 277 3.0 4.0 0.00 0.00 0.00 59 1012.4
20260906081931 66 251 2.0 2.0 0.00 0.00 0.00 59 1012.3
20260906081427 66 339 0.0 0.0 0.00 0.00 0.00 58 1012.2
20260906080923 66 278 2.0 2.0 0.00 0.00 0.00 57 1012.3
20260906080419 66 291 1.0 1.0 0.00 0.00 0.00 57 1012.2
20260906075918 66 291 2.0 2.0 0.00 0.00 0.00 56 1012.2
20260906075414 67 266 3.0 5.0 0.00 0.00 0.00 55 1012.1
20260906074909 67 263 3.0 4.0 0.00 0.00 0.00 55 1012.2
20260906074403 67 273 4.0 4.0 0.00 0.00 0.00 55 1012.1
20260906073901 67 261 2.0 2.0 0.00 0.00 0.00 55 1012.0
20260906073356 68 248 2.0 2.0 0.00 0.00 0.00 55 1012.1
20260906072853 68 264 3.0 4.0 0.00 0.00 0.00 54 1011.9
20260906072348 68 258 4.0 5.0 0.00 0.00 0.00 53 1012.0
20260906071844 68 273 2.0 2.0 0.00 0.00 0.00 52 1012.1
20260906071339 69 271 3.0 4.0 0.00 0.00 0.00 51 1011.9
20260906070836 69 231 2.0 2.0 0.00 0.00 0.00 51 1011.9
20260906070331 69 260 3.0 4.0 0.00 0.00 0.00 51 1011.8
20260906065826 69 231 3.0 4.0 0.00 0.00 0.00 52 1011.9
20260906065321 69 261 2.0 2.0 0.00 0.00 0.00 52 1011.7
20260906064817 69 216 0.0 1.0 0.00 0.00 0.00 54 1011.9
20260906064313 70 255 0.0 0.0 0.00 0.00 0.00 53 1011.9
20260906063807 70 303 0.0 0.0 0.00 0.00 0.00 52 1011.9
20260906063303 70 255 1.0 1.0 0.00 0.00 0.00 50 1011.8
20260906062757 71 241 1.0 2.0 0.00 0.00 0.00 50 1012.0
20260906062256 71 278 1.0 1.0 0.00 0.00 0.00 50 1011.9
20260906061752 71 242 2.0 2.0 0.00 0.00 0.00 49 1012.0
20260906061249 71 274 2.0 2.0 0.00 0.00 0.00 49 1011.9
20260906060743 71 242 0.0 1.0 0.00 0.00 0.00 49 1011.8
20260906060241 71 250 1.0 1.0 0.00 0.00 0.00 50 1011.8
20260906055736 71 162 1.0 1.0 0.00 0.00 0.00 49 1011.9
20260906055232 71 243 3.0 5.0 0.00 0.00 0.00 49 1011.7
20260906054727 71 244 1.0 1.0 0.00 0.00 0.00 49 1011.6
20260906054222 72 258 2.0 2.0 0.00 0.00 0.00 49 1011.5
20260906053719 72 231 1.0 1.0 0.00 0.00 0.00 49 1011.8
20260906053214 72 242 1.0 1.0 0.00 0.00 0.00 50 1011.6
20260906052709 72 242 2.0 2.0 0.00 0.00 0.00 50 1011.6
20260906052205 72 292 1.0 1.0 0.00 0.00 0.00 51 1011.5
20260906051702 72 238 1.0 1.0 0.00 0.00 0.00 50 1011.7
20260906051201 72 247 1.0 1.0 0.00 0.00 0.00 50 1011.7
20260906050657 72 265 3.0 4.0 0.00 0.00 0.00 49 1011.7
20260906050151 72 291 2.0 4.0 0.00 0.00 0.00 50 1011.8
20260906045650 72 250 2.0 2.0 0.00 0.00 0.00 51 1011.6
20260906045145 73 73 0.0 0.0 0.00 0.00 0.00 50 1011.9
20260906044641 73 67 0.0 0.0 0.00 0.00 0.00 49 1011.6
20260906044137 73 55 0.0 0.0 0.00 0.00 0.00 49 1011.6
20260906043633 73 232 0.0 0.0 0.00 0.00 0.00 49 1011.9
20260906043128 73 293 0.0 1.0 0.00 0.00 0.00 50 1011.6
20260906042627 74 295 1.0 2.0 0.00 0.00 0.00 50 1011.8
20260906042121 74 238 0.0 1.0 0.00 0.00 0.00 50 1011.6
20260906041618 75 209 1.0 2.0 0.00 0.00 0.00 49 1011.5
20260906041112 76 231 1.0 1.0 0.00 0.00 0.00 47 1011.4
20260906040608 77 251 2.0 4.0 0.00 0.00 0.00 46 1011.1
20260906035558 77 255 3.0 4.0 0.00 0.00 0.00 46 1010.9
20260906035054 75 256 0.0 1.0 0.00 0.00 0.00 49 1010.8
20260906034554 74 47 0.0 0.0 0.00 0.00 0.00 62 1010.8
20260906034049 75 47 0.0 0.0 0.00 0.00 0.00 61 1010.8
20260906033544 76 46 0.0 0.0 0.00 0.00 0.00 60 1010.6
20260906033039 75 46 0.0 0.0 0.00 0.00 0.00 54 1010.8
20260906032536 75 46 0.0 0.0 0.00 0.00 0.00 47 1010.4
20260906032030 75 44 0.0 0.0 0.00 0.00 0.00 49 1010.4
20260906031525 75 44 0.0 0.0 0.00 0.00 0.00 48 1010.4
20260906031016 76 44 0.0 0.0 0.00 0.00 0.00 48 1010.3
20260906030515 76 44 0.0 0.0 0.00 0.00 0.00 47 1010.3
20260906030014 77 44 0.0 0.0 0.00 0.00 0.00 46 1010.1
20260906025514 77 44 0.0 0.0 0.00 0.00 0.00 46 1010.2
20260906025012 78 44 0.0 0.0 0.00 0.00 0.00 44 1010.2
20260906024508 78 44 0.0 0.0 0.00 0.00 0.00 43 1010.2
20260906024008 78 44 0.0 0.0 0.00 0.00 0.00 44 1010.1
20260906023504 79 44 0.0 0.0 0.00 0.00 0.00 43 1010.1
20260906022959 79 44 0.0 0.0 0.00 0.00 0.00 41 1010.1
20260906022454 80 44 0.0 0.0 0.00 0.00 0.00 39 1010.2
20260906021949 81 44 0.0 0.0 0.00 0.00 0.00 40 1010.1
20260906021444 82 44 0.0 0.0 0.00 0.00 0.00 39 1010.1
20260906020938 83 44 0.0 0.0 0.00 0.00 0.00 39 1010.0
20260906020433 83 44 0.0 0.0 0.00 0.00 0.00 38 1010.2
20260906015927 83 51 0.0 0.0 0.00 0.00 0.00 38 1010.2
20260906015427 84 29 0.0 0.0 0.00 0.00 0.00 37 1010.0
20260906014926 85 354 0.0 0.0 0.00 0.00 0.00 34 1010.4
20260906014426 86 29 0.0 0.0 0.00 0.00 0.00 33 1010.1
20260906013922 86 327 0.0 0.0 0.00 0.00 0.00 31 1010.1
20260906013418 86 248 2.0 2.0 0.00 0.00 0.00 33 1010.2
20260906012914 86 315 1.0 1.0 0.00 0.00 0.00 32 1010.2
20260906012408 86 75 1.0 1.0 0.00 0.00 0.00 32 1010.4
20260906011907 87 258 1.0 1.0 0.00 0.00 0.00 31 1010.3
20260906011402 87 220 1.0 1.0 0.00 0.00 0.00 31 1010.5
20260906010858 88 21 0.0 1.0 0.00 0.00 0.00 29 1010.5
20260906010354 87 22 0.0 1.0 0.00 0.00 0.00 30 1010.3
20260906005850 88 243 3.0 4.0 0.00 0.00 0.00 29 1010.5
20260906005349 88 37 1.0 1.0 0.00 0.00 0.00 27 1010.4
20260906004847 89 39 0.0 0.0 0.00 0.00 0.00 28 1010.5
20260906004347 89 22 0.0 1.0 0.00 0.00 0.00 28 1010.4
20260906003843 88 49 0.0 0.0 0.00 0.00 0.00 28 1010.3
20260906003338 89 259 1.0 2.0 0.00 0.00 0.00 27 1010.4
20260906002833 88 260 1.0 1.0 0.00 0.00 0.00 26 1010.4
20260906002332 88 225 0.0 0.0 0.00 0.00 0.00 27 1010.4
20260906001828 88 329 1.0 1.0 0.00 0.00 0.00 27 1010.6
20260906001324 89 45 0.0 0.0 0.00 0.00 0.00 27 1010.4
20260906000819 87 259 1.0 2.0 0.00 0.00 0.00 28 1010.6
20260906000313 87 276 3.0 4.0 0.00 0.00 0.00 27 1010.4
20260905235808 88 251 3.0 4.0 0.00 0.00 0.00 26 1010.8
20260905235306 89 359 1.0 1.0 0.00 0.00 0.00 27 1010.4
20260905234758 88 241 1.0 1.0 0.00 0.00 0.00 28 1010.9
20260905234253 87 280 0.0 1.0 0.00 0.00 0.00 28 1010.9
20260905233748 87 265 5.0 6.0 0.00 0.00 0.00 28 1010.9
20260905233248 88 282 4.0 5.0 0.00 0.00 0.00 27 1010.9
20260905232747 87 66 1.0 1.0 0.00 0.00 0.00 28 1011.0
20260905232243 87 100 1.0 1.0 0.00 0.00 0.00 27 1010.9
20260905231739 86 21 2.0 2.0 0.00 0.00 0.00 28 1010.9
20260905231234 87 4 3.0 4.0 0.00 0.00 0.00 27 1011.2
20260905230731 87 350 1.0 1.0 0.00 0.00 0.00 27 1011.2
20260905230228 88 58 1.0 1.0 0.00 0.00 0.00 27 1011.2
20260905225728 89 200 0.0 1.0 0.00 0.00 0.00 27 1011.2
20260905225223 88 335 0.0 1.0 0.00 0.00 0.00 29 1011.1
20260905224722 87 252 2.0 2.0 0.00 0.00 0.00 28 1011.3
20260905224218 87 294 1.0 1.0 0.00 0.00 0.00 29 1011.3
20260905223714 87 253 1.0 1.0 0.00 0.00 0.00 28 1011.4
20260905223210 86 316 1.0 1.0 0.00 0.00 0.00 29 1011.5
20260905222706 86 275 6.0 6.0 0.00 0.00 0.00 28 1011.5
20260905222205 86 266 1.0 2.0 0.00 0.00 0.00 28 1011.7
20260905221701 86 235 2.0 2.0 0.00 0.00 0.00 28 1011.6
20260905221158 87 249 3.0 5.0 0.00 0.00 0.00 27 1011.8
20260905220653 86 18 3.0 5.0 0.00 0.00 0.00 28 1011.7
20260905220149 86 16 2.0 2.0 0.00 0.00 0.00 29 1011.9
20260905215649 86 20 1.0 2.0 0.00 0.00 0.00 29 1011.8
20260905215144 86 346 3.0 4.0 0.00 0.00 0.00 30 1012.1
20260905214640 86 52 2.0 2.0 0.00 0.00 0.00 29 1012.0
20260905214135 85 56 1.0 1.0 0.00 0.00 0.00 29 1012.3
20260905213630 85 97 1.0 1.0 0.00 0.00 0.00 29 1012.0
20260905213126 84 72 3.0 4.0 0.00 0.00 0.00 29 1012.2
20260905212621 86 94 2.0 2.0 0.00 0.00 0.00 28 1012.2
20260905212120 85 242 2.0 2.0 0.00 0.00 0.00 29 1012.3
20260905211615 85 77 1.0 1.0 0.00 0.00 0.00 29 1012.5
20260905211111 85 332 1.0 1.0 0.00 0.00 0.00 29 1012.3
20260905210607 85 15 1.0 2.0 0.00 0.00 0.00 29 1012.5
20260905205601 84 76 1.0 1.0 0.00 0.00 0.00 29 1012.7
20260905205101 84 60 0.0 1.0 0.00 0.00 0.00 30 1012.7
20260905204555 83 39 1.0 1.0 0.00 0.00 0.00 31 1012.6
20260905204050 85 242 2.0 2.0 0.00 0.00 0.00 30 1012.6
20260905203550 83 338 1.0 2.0 0.00 0.00 0.00 31 1012.5
20260905203045 83 249 3.0 4.0 0.00 0.00 0.00 30 1012.6
20260905202541 84 357 1.0 1.0 0.00 0.00 0.00 31 1012.8
20260905202036 83 326 1.0 1.0 0.00 0.00 0.00 31 1012.8
20260905201532 81 8 0.0 1.0 0.00 0.00 0.00 31 1012.9
20260905201031 82 226 0.0 0.0 0.00 0.00 0.00 30 1012.8
20260905200527 82 263 2.0 2.0 0.00 0.00 0.00 30 1012.9
20260905200026 82 358 0.0 1.0 0.00 0.00 0.00 30 1013.0
20260905195520 81 354 2.0 2.0 0.00 0.00 0.00 31 1012.9
20260905195015 81 320 2.0 2.0 0.00 0.00 0.00 31 1013.1
20260905194510 81 252 2.0 2.0 0.00 0.00 0.00 30 1012.9
20260905194009 81 65 2.0 2.0 0.00 0.00 0.00 31 1013.2
20260905193504 81 265 1.0 2.0 0.00 0.00 0.00 31 1013.2
20260905192959 81 332 0.0 0.0 0.00 0.00 0.00 32 1013.2
20260905192454 80 77 2.0 2.0 0.00 0.00 0.00 32 1013.2
20260905191950 81 3 1.0 1.0 0.00 0.00 0.00 33 1013.3
20260905191444 80 68 0.0 1.0 0.00 0.00 0.00 31 1013.3
20260905190943 79 258 1.0 1.0 0.00 0.00 0.00 32 1013.5
20260905190441 78 253 1.0 1.0 0.00 0.00 0.00 33 1013.6
20260905185940 78 282 4.0 5.0 0.00 0.00 0.00 34 1013.5
20260905185435 78 134 1.0 1.0 0.00 0.00 0.00 33 1013.7
20260905184934 78 257 1.0 1.0 0.00 0.00 0.00 34 1013.8
20260905184429 77 309 3.0 4.0 0.00 0.00 0.00 35 1013.5
20260905183927 78 232 3.0 4.0 0.00 0.00 0.00 33 1013.7
20260905183422 77 213 1.0 1.0 0.00 0.00 0.00 34 1013.8
20260905182918 78 170 0.0 1.0 0.00 0.00 0.00 34 1013.5
20260905182416 77 98 1.0 1.0 0.00 0.00 0.00 34 1013.8
20260905181913 77 271 3.0 4.0 0.00 0.00 0.00 35 1013.9
20260905181412 76 272 3.0 4.0 0.00 0.00 0.00 36 1014.0
20260905180912 75 224 2.0 2.0 0.00 0.00 0.00 36 1013.9
20260905180406 75 257 3.0 4.0 0.00 0.00 0.00 36 1013.8
20260905175901 76 257 4.0 5.0 0.00 0.00 0.00 36 1014.1
20260905175400 75 304 1.0 1.0 0.00 0.00 0.00 37 1014.0
20260905174855 74 209 2.0 2.0 0.00 0.00 0.00 38 1013.7
20260905174352 74 293 0.0 0.0 0.00 0.00 0.00 38 1013.9
20260905173847 74 225 3.0 4.0 0.00 0.00 0.00 39 1013.9
20260905173343 74 47 1.0 1.0 0.00 0.00 0.00 38 1013.8
20260905172838 73 255 3.0 4.0 0.00 0.00 0.00 40 1013.7
20260905172336 72 298 1.0 2.0 0.00 0.00 0.00 40 1013.9
20260905171832 72 252 3.0 4.0 0.00 0.00 0.00 42 1013.8
20260905171329 73 241 1.0 4.0 0.00 0.00 0.00 41 1013.9
20260905170825 73 76 0.0 1.0 0.00 0.00 0.00 40 1013.9
20260905170320 73 256 3.0 4.0 0.00 0.00 0.00 41 1013.9
20260905165820 72 83 0.0 1.0 0.00 0.00 0.00 42 1013.8
20260905165315 71 79 1.0 1.0 0.00 0.00 0.00 45 1013.8
20260905164815 72 246 3.0 4.0 0.00 0.00 0.00 45 1013.9
20260905164310 71 67 1.0 1.0 0.00 0.00 0.00 45 1013.8
20260905163805 69 104 0.0 1.0 0.00 0.00 0.00 49 1014.0
20260905163301 69 0 2.0 2.0 0.00 0.00 0.00 49 1013.7
20260905162757 69 305 2.0 2.0 0.00 0.00 0.00 49 1013.8
20260905162257 69 221 2.0 4.0 0.00 0.00 0.00 49 1013.7
20260905161751 69 321 0.0 0.0 0.00 0.00 0.00 50 1013.8
20260905161250 68 300 1.0 1.0 0.00 0.00 0.00 50 1013.8
20260905160749 68 44 1.0 1.0 0.00 0.00 0.00 51 1013.5
20260905160243 67 50 0.0 0.0 0.00 0.00 0.00 52 1013.8
20260905155738 67 292 1.0 1.0 0.00 0.00 0.00 52 1013.8
20260905155237 67 55 0.0 1.0 0.00 0.00 0.00 51 1013.8
20260905154731 66 37 1.0 1.0 0.00 0.00 0.00 51 1013.5
20260905154227 67 63 1.0 1.0 0.00 0.00 0.00 52 1013.5
20260905153722 67 17 1.0 1.0 0.00 0.00 0.00 55 1013.3
20260905153219 66 323 0.0 0.0 0.00 0.00 0.00 56 1013.5
20260905152713 65 34 0.0 0.0 0.00 0.00 0.00 57 1013.4
20260905152207 64 248 0.0 1.0 0.00 0.00 0.00 58 1013.2
20260905151707 64 82 0.0 0.0 0.00 0.00 0.00 59 1013.3
20260905151203 63 111 0.0 0.0 0.00 0.00 0.00 62 1013.1
20260905150658 62 266 2.0 2.0 0.00 0.00 0.00 63 1013.1
20260905150156 62 240 2.0 2.0 0.00 0.00 0.00 65 1013.1
20260905145655 61 247 2.0 2.0 0.00 0.00 0.00 67 1012.9
20260905145154 61 249 3.0 4.0 0.00 0.00 0.00 66 1013.0
20260905144648 60 306 2.0 2.0 0.00 0.00 0.00 68 1012.9
20260905144143 60 240 1.0 1.0 0.00 0.00 0.00 69 1013.0
20260905143637 60 273 1.0 1.0 0.00 0.00 0.00 69 1012.8
20260905143132 60 259 1.0 2.0 0.00 0.00 0.00 69 1012.8
20260905142631 60 273 1.0 1.0 0.00 0.00 0.00 70 1012.9
20260905142131 59 248 2.0 2.0 0.00 0.00 0.00 70 1012.8
20260905141630 59 283 1.0 1.0 0.00 0.00 0.00 70 1012.9
20260905141127 59 264 2.0 2.0 0.00 0.00 0.00 70 1012.7
20260905140622 59 264 1.0 1.0 0.00 0.00 0.00 70 1012.7
20260905140121 59 280 2.0 2.0 0.00 0.00 0.00 69 1013.0
20260905135616 59 283 2.0 2.0 0.00 0.00 0.00 69 1012.6
20260905135112 59 301 2.0 2.0 0.00 0.00 0.00 69 1012.7
20260905134607 59 255 2.0 4.0 0.00 0.00 0.00 69 1012.6
20260905134105 59 276 2.0 2.0 0.00 0.00 0.00 68 1012.6
20260905133601 59 281 1.0 1.0 0.00 0.00 0.00 68 1012.7
20260905133101 59 295 2.0 2.0 0.00 0.00 0.00 68 1012.5
20260905132600 59 278 3.0 4.0 0.00 0.00 0.00 68 1012.3
20260905132055 59 271 1.0 1.0 0.00 0.00 0.00 67 1012.6
20260905131551 59 285 1.0 1.0 0.00 0.00 0.00 66 1012.5
20260905131046 60 276 3.0 4.0 0.00 0.00 0.00 65 1012.5
20260905130545 60 293 2.0 2.0 0.00 0.00 0.00 64 1012.5
20260905130040 60 291 1.0 1.0 0.00 0.00 0.00 63 1012.4
20260905125539 60 241 2.0 2.0 0.00 0.00 0.00 63 1012.3
20260905125035 60 285 2.0 2.0 0.00 0.00 0.00 63 1012.1
20260905124532 60 284 1.0 1.0 0.00 0.00 0.00 63 1012.2
20260905124028 60 278 2.0 2.0 0.00 0.00 0.00 63 1012.4
20260905123523 60 269 2.0 2.0 0.00 0.00 0.00 63 1012.4
20260905123019 60 256 2.0 2.0 0.00 0.00 0.00 63 1012.5
20260905122513 60 280 2.0 2.0 0.00 0.00 0.00 65 1012.5
20260905122009 60 303 0.0 0.0 0.00 0.00 0.00 66 1012.5
20260905121509 60 249 1.0 1.0 0.00 0.00 0.00 66 1012.4
20260905121003 60 66 0.0 0.0 0.00 0.00 0.00 66 1012.3
20260905120457 61 52 1.0 1.0 0.00 0.00 0.00 65 1012.2
20260905115952 61 246 1.0 1.0 0.00 0.00 0.00 65 1012.4
20260905115451 61 224 2.0 2.0 0.00 0.00 0.00 64 1012.4
20260905114946 61 315 1.0 1.0 0.00 0.00 0.00 64 1012.2
20260905114446 61 351 1.0 2.0 0.00 0.00 0.00 64 1012.3
20260905113944 61 263 2.0 2.0 0.00 0.00 0.00 65 1012.3